Location: Asheville, NC
(35.6000°N, 82.5500°W)
Time: 00:56:15
(UTC-04:00)

Vanguard 1 Rocket - Pass Details

Date: 13 December 2017
Orbit: 653 x 4224 km, 34.3° (Epoch: 23 June)

Event Time Altitude Azimuth Distance (km) Brightness Sun altitude
Rises 19:45:23 0° 269° (W) 5,049 12.4 -29.1°
Reaches altitude 10° 19:48:01 10° 269° (W) 4,392 11.8 -29.7°
Maximum altitude 20:01:24 86° 183° (S) 3,047 9.8 -32.4°
Enters shadow 20:10:09 48° 99° (E) 4,289 10.2 -34.1°
Drops below altitude 10° 20:26:03 10° 98° (E) 7,365 - -37.4°
Sets 20:32:08 0° 99° (E) 8,469 - -38.6°
